[[{"header":{"parameterUnit":"m.s-1","parameterCategory":1,"la1":30.2991,"la2":30.254,"lo1":-89.0895,"lo2":-89.0444,"dy":0.0017,"dx":0.0017,"nx":28,"ny":28,"refTime":"2023-06-28T21:00:00:Z","depth":0,"parameterNumber":2,"parameterNumberName":"U-component_of_WINDS"},"data":[0,0,0,0,0,0,0,0,0,0,0,0,0,0,0,0,0,0,0,0,0,0,0,0,0,0,0,0,0,0,0,0,0,0,0,0,0,0,0,0,0,0,0,0,0,0,0,0,0,0,0,0,0,0,0,0,0,0,0.0967,0.0965,0,0.0764,0.0762,0.076,0.0581,0.0579,0.0577,0.0575,0.037,0.0366,0.0363,0,0,0,0,0,0,0,0,0,0,0,0,0,0.1203,0.1199,0.0968,0.0965,0.0963,0.0765,0.0762,0.0759,0.0581,0.0579,0.0576,0.0574,0.0371,0.0367,0.0363,0,0,0,0,0,0,0,0,0,0,0,0,0,0.106,0.1198,0.0968,0.085,0.0837,0.0765,0.0762,0.0758,0.0582,0.0579,0.0576,0.0573,0.0372,0.0367,0.0362,0.0392,0,0,0.0346,0.0344,0,0,0,0,0,0,0,0,0.1069,0.1052,0.087,0.0858,0.0844,0.0695,0.0769,0.0635,0.0583,0.0679,0.0575,0.0571,0.0481,0.0466,0.0435,0.0382,0.0373,0.0345,0.0342,0.034,0.0338,0,0,0,0,0,0,0,0.1079,0.106,0.0887,0.0867,0.0851,0.0807,0.0784,0.0743,0.06,0.067,0.0657,0.0635,0.0473,0.0441,0.0429,0.037,0.0346,0.0341,0.0338,0.0336,0.0329,0.0332,0,0,0,0,0,0,0.1107,0.1069,0.0894,0.0881,0.0951,0.0806,0.0779,0.0746,0.06,0.0574,0.0638,0.0628,0.0451,0.0435,0.0421,0.0445,0.034,0.0335,0.0332,0.0326,0.033,0.0333,0,0,0,0,0,0,0.1112,0.1093,0.0902,0.0971,0.0944,0.0805,0.0769,0.0743,0.0711,0.0575,0.0549,0.0631,0.0448,0.0429,0.0399,0.0436,0.0333,0.0328,0.0322,0.0327,0.0331,0.0496,0,0,0,0,0,0,0.112,0.1096,0.1106,0.0973,0.0941,0.0884,0.0771,0.0742,0.0702,0.0686,0.0562,0.0538,0.0444,0.0408,0.0394,0.0427,0.0324,0.0319,0.0324,0.033,0.0486,0.0505,0.0521,0,0,0,0,0,0.1129,0.1161,0.1107,0.1087,0.095,0.0887,0.0868,0.0758,0.0706,0.0714,0.0627,0.0542,0.0434,0.0407,0.039,0.0421,0.0316,0.0323,0.0329,0.0479,0.0502,0.0521,0,0,0,0,0,0,0.1304,0.1142,0.108,0.107,0.0993,0.0857,0.0865,0.0786,0.0724,0.0712,0.0579,0.0552,0.0538,0.0476,0.0449,0.0441,0.0363,0.0367,0.0483,0.0503,0.0521,0.0537,0.0319,0,0,0,0,0,0.1341,0.1302,0.1163,0.1168,0.1132,0.1006,0.0974,0.0895,0.0811,0.0778,0.0688,0.061,0.0558,0.0527,0.0471,0.0475,0.0446,0.0488,0.0506,0.052,0.0526,0.0523,0.054,0.0355,0.0355,0.0355,0,0,0.1418,0.1324,0.1309,0.12,0.1132,0.1095,0.098,0.0946,0.0918,0.0773,0.074,0.0671,0.0575,0.0563,0.0553,0.0511,0.057,0.0529,0.0542,0.0539,0.0532,0.0549,0.0565,0.036,0.0359,0.0358,0,0,0.154,0.1465,0.1461,0.1393,0.129,0.1205,0.1204,0.1078,0.1027,0.0991,0.0881,0.0845,0.0758,0.0694,0.065,0.0744,0.0665,0.073,0.0822,0.0821,0.0835,0.0848,0.0882,0.0896,0.0735,0.0735,0.0736,0,0.165,0.159,0.1469,0.1441,0.1397,0.1261,0.1256,0.1196,0.1081,0.1054,0.1007,0.0894,0.0819,0.079,0.0813,0.0781,0.0776,0.0745,0.0843,0.0854,0.0864,0.0895,0.0908,0.0744,0.0743,0.0742,0.0741,0,0.1729,0.169,0.1698,0.1589,0.1544,0.1529,0.1405,0.1375,0.1299,0.1219,0.1184,0.1089,0.1012,0.0998,0.0925,0.0958,0.0935,0.0868,0.0787,0.0892,0.0919,0.093,0.0757,0.0753,0.0751,0.0749,0,0,0.196,0.1781,0.1786,0.1734,0.1609,0.1576,0.1553,0.1475,0.1453,0.1376,0.1354,0.1282,0.1218,0.1168,0.1086,0.1084,0.1165,0.1016,0.1012,0.1048,0.1196,0.125,0.1266,0.111,0.1112,0.1113,0.1205,0,0.2063,0.2014,0.1902,0.1888,0.185,0.1719,0.1698,0.1619,0.1543,0.1499,0.1414,0.1366,0.1285,0.1254,0.1246,0.1158,0.1194,0.1149,0.1089,0.1089,0.112,0.1279,0.1336,0.1427,0.1214,0.1216,0.1217,0,0.2177,0.2108,0.209,0.1965,0.1944,0.1928,0.1848,0.1807,0.1714,0.1658,0.1602,0.1509,0.1478,0.1402,0.1356,0.1329,0.1297,0.1249,0.125,0.1243,0.1162,0.1278,0.1453,0.1468,0.1233,0.1231,0.123,0,0.2349,0.2251,0.2227,0.2186,0.2039,0.2031,0.197,0.1873,0.1833,0.1762,0.1735,0.1662,0.1623,0.1568,0.1459,0.1413,0.1426,0.1341,0.138,0.1383,0.1391,0.1393,0.1566,0.1367,0.1367,0.1367,0.1367,0,0.2477,0.2472,0.2302,0.2288,0.2277,0.2148,0.2141,0.2067,0.1982,0.1951,0.1832,0.1806,0.1662,0.1618,0.1532,0.1508,0.1491,0.1445,0.1423,0.1457,0.1464,0.1437,0.1429,0.137,0.137,0.1369,0.1368,0,0.2669,0.2555,0.252,0.2383,0.2348,0.2346,0.2228,0.221,0.2124,0.2087,0.207,0.1937,0.188,0.1764,0.1675,0.1617,0.1613,0.1572,0.1645,0.1632,0.1678,0.1676,0.1843,0.1858,0.1649,0.1651,0.1653,0,0.276,0.2752,0.2613,0.2583,0.2526,0.2479,0.2437,0.2309,0.227,0.2162,0.2157,0.2089,0.2029,0.1943,0.1839,0.177,0.1727,0.179,0.1717,0.1751,0.173,0.1733,0.1732,0.1808,0.1811,0.1814,0.1816,0,0.2933,0.2876,0.282,0.2744,0.2696,0.263,0.2558,0.254,0.2395,0.2357,0.2296,0.2249,0.2157,0.2092,0.2007,0.1943,0.1856,0.1839,0.1844,0.1881,0.1924,0.1903,0.1693,0.1837,0.1834,0.1833,0.1832,0.1831,0.3078,0.3065,0.2964,0.2905,0.2836,0.2771,0.2746,0.2657,0.2604,0.2518,0.2445,0.2391,0.2295,0.2171,0.2113,0.2068,0.2026,0.2034,0.2036,0.2041,0.2056,0.1929,0.2052,0.2051,0.205,0.205,0.2049,0,0.3247,0.3175,0.3121,0.3023,0.2976,0.2895,0.281,0.2777,0.273,0.2648,0.259,0.2519,0.2455,0.2344,0.227,0.2256,0.2214,0.2241,0.2243,0.2229,0.2097,0.2101,0.2276,0.2276,0.2276,0.2276,0.2276,0.2276,0.3329,0.3303,0.3234,0.3171,0.3098,0.3044,0.3002,0.2941,0.2874,0.2801,0.2746,0.2674,0.258,0.2497,0.2435,0.2403,0.2383,0.2423,0.238,0.226,0.2239,0.2218,0.2221,0.2419,0.2419,0.2516,0.2517,0.2517]},{"header":{"parameterUnit":"m.s-1","parameterCategory":1,"la1":30.2991,"la2":30.254,"lo1":-89.0895,"lo2":-89.0444,"dy":0.0017,"dx":0.0017,"nx":28,"ny":28,"refTime":"2023-06-28T21:00:00:Z","depth":0,"parameterNumber":3,"parameterNumberName":"V-component_of_WINDS"},"data":[0,0,0,0,0,0,0,0,0,0,0,0,0,0,0,0,0,0,0,0,0,0,0,0,0,0,0,0,0,0,0,0,0,0,0,0,0,0,0,0,0,0,0,0,0,0,0,0,0,0,0,0,0,0,0,0,0,0,0.2259,0.2261,0,0.2373,0.2374,0.2375,0.2406,0.2405,0.2405,0.2404,0.2519,0.2523,0.2526,0,0,0,0,0,0,0,0,0,0,0,0,0,0.2069,0.2072,0.2259,0.2261,0.2262,0.2372,0.2374,0.2375,0.2406,0.2405,0.2404,0.2404,0.2518,0.2522,0.2527,0,0,0,0,0,0,0,0,0,0,0,0,0,0.2164,0.2073,0.2259,0.2291,0.2295,0.2372,0.2374,0.2376,0.2406,0.2405,0.2404,0.2403,0.2517,0.2522,0.2527,0.2581,0,0,0.2544,0.2547,0,0,0,0,0,0,0,0,0.2158,0.2171,0.2285,0.2289,0.2293,0.2374,0.2349,0.2445,0.2407,0.2364,0.2404,0.2403,0.2472,0.2481,0.2504,0.2586,0.2591,0.2545,0.2548,0.255,0.2552,0,0,0,0,0,0,0,0.2152,0.2166,0.2304,0.2286,0.2292,0.2299,0.2311,0.2367,0.2422,0.2368,0.237,0.2383,0.2474,0.2499,0.2507,0.2593,0.2544,0.2549,0.2553,0.2555,0.2724,0.2726,0,0,0,0,0,0,0.214,0.216,0.2301,0.2308,0.2222,0.2303,0.2317,0.2349,0.2421,0.2431,0.2384,0.2384,0.249,0.2501,0.2511,0.2579,0.255,0.2555,0.2559,0.2723,0.2725,0.2726,0,0,0,0,0,0,0.2136,0.2152,0.2296,0.2235,0.2254,0.2308,0.2343,0.2352,0.2377,0.2434,0.2443,0.2399,0.2489,0.2503,0.2563,0.2583,0.2558,0.2563,0.2722,0.2724,0.2725,0.2714,0,0,0,0,0,0,0.213,0.215,0.2172,0.2235,0.2257,0.2347,0.2345,0.2355,0.2386,0.2388,0.2451,0.246,0.249,0.2555,0.2569,0.259,0.2567,0.272,0.2723,0.2725,0.2713,0.2715,0.2717,0,0,0,0,0,0.2123,0.2164,0.2173,0.2189,0.2284,0.2348,0.236,0.2393,0.2388,0.241,0.2446,0.2458,0.2579,0.2561,0.2577,0.26,0.2719,0.2722,0.2725,0.2712,0.2715,0.2717,0,0,0,0,0,0,0.2101,0.2173,0.2183,0.2246,0.229,0.2353,0.2381,0.2395,0.2442,0.2442,0.2481,0.2495,0.2552,0.2582,0.2561,0.2655,0.2649,0.2655,0.2634,0.2637,0.2639,0.2631,0.2572,0,0,0,0,0,0.2104,0.215,0.2209,0.2259,0.2281,0.2327,0.2356,0.2377,0.2425,0.2444,0.2485,0.253,0.2579,0.2609,0.2657,0.2717,0.2731,0.2741,0.2743,0.2744,0.2749,0.2783,0.2788,0.2735,0.2735,0.2735,0,0,0.211,0.2154,0.2181,0.2255,0.2293,0.2339,0.2343,0.2391,0.2426,0.2452,0.2511,0.2542,0.2595,0.2655,0.2684,0.2682,0.2767,0.2748,0.2749,0.2753,0.2786,0.2791,0.2795,0.2737,0.2736,0.2736,0,0,0.2144,0.2182,0.2227,0.2264,0.232,0.2351,0.2361,0.2422,0.2444,0.2503,0.2524,0.2565,0.2647,0.2684,0.2714,0.2761,0.2774,0.2775,0.2786,0.2818,0.2823,0.2826,0.2843,0.2848,0.2779,0.2779,0.2779,0,0.2144,0.2214,0.2248,0.2296,0.2328,0.2354,0.2399,0.2434,0.2502,0.2524,0.2521,0.2624,0.2662,0.2731,0.2742,0.2765,0.2778,0.2768,0.2819,0.2823,0.2828,0.2844,0.285,0.2779,0.2779,0.2779,0.2779,0,0.2211,0.2259,0.2289,0.2355,0.239,0.2436,0.2478,0.2509,0.2527,0.2558,0.2618,0.2664,0.2721,0.2739,0.2758,0.2811,0.2808,0.2812,0.2806,0.2832,0.2848,0.2854,0.2779,0.2779,0.2779,0.2779,0,0,0.2235,0.2319,0.2329,0.2359,0.2422,0.246,0.2507,0.2563,0.2589,0.2635,0.2676,0.2744,0.2748,0.2781,0.2804,0.2833,0.2866,0.2833,0.2835,0.2837,0.2927,0.2924,0.293,0.2875,0.2877,0.2878,0.2923,0,0.2277,0.2362,0.2394,0.2464,0.2509,0.2533,0.2575,0.2618,0.2647,0.2689,0.2722,0.277,0.2771,0.2791,0.282,0.2856,0.2885,0.2853,0.2913,0.2914,0.2899,0.2939,0.2936,0.2976,0.2929,0.293,0.2931,0,0.2337,0.2384,0.2458,0.2515,0.2535,0.2572,0.2625,0.2665,0.2714,0.2734,0.2771,0.2792,0.2841,0.2832,0.2901,0.2879,0.2905,0.2926,0.2928,0.2935,0.2924,0.2947,0.299,0.2996,0.2941,0.294,0.2939,0,0.2347,0.2428,0.2483,0.2508,0.2576,0.2601,0.2631,0.2679,0.271,0.2757,0.2777,0.2829,0.2857,0.2896,0.293,0.292,0.2996,0.299,0.3013,0.3012,0.3028,0.3027,0.3076,0.3045,0.3045,0.3044,0.3044,0,0.239,0.2435,0.2489,0.2522,0.2573,0.2609,0.2657,0.2688,0.2731,0.2771,0.2795,0.2832,0.2874,0.2917,0.2943,0.2996,0.3009,0.3026,0.3032,0.3024,0.3021,0.3041,0.3039,0.3046,0.3046,0.3045,0.3045,0,0.241,0.2448,0.2509,0.2568,0.2584,0.2619,0.267,0.2703,0.2733,0.2783,0.2797,0.2845,0.2896,0.2933,0.2999,0.3017,0.3073,0.308,0.3057,0.306,0.3082,0.3079,0.3145,0.3156,0.3117,0.3118,0.3118,0,0.2435,0.247,0.2533,0.2561,0.259,0.2636,0.2668,0.2705,0.2737,0.2795,0.2821,0.2874,0.2918,0.2998,0.3038,0.3088,0.3097,0.3116,0.3104,0.3094,0.3097,0.3094,0.3098,0.3118,0.3118,0.3118,0.3118,0,0.2475,0.2492,0.2537,0.2589,0.2626,0.2669,0.2712,0.2733,0.2778,0.2812,0.2865,0.2899,0.2966,0.3018,0.3072,0.3102,0.3118,0.3122,0.313,0.3121,0.3106,0.3115,0.3061,0.312,0.312,0.312,0.312,0.312,0.2499,0.253,0.2579,0.2629,0.2665,0.2704,0.2738,0.2773,0.2817,0.2874,0.2893,0.2947,0.2995,0.3069,0.31,0.3142,0.3142,0.3154,0.3157,0.3159,0.3158,0.31,0.3152,0.3152,0.3152,0.3152,0.3152,0,0.254,0.2573,0.2618,0.2677,0.2715,0.2726,0.2774,0.2806,0.2853,0.2896,0.2939,0.2999,0.3049,0.3093,0.3144,0.317,0.3178,0.3182,0.3181,0.3187,0.3156,0.3143,0.3175,0.3175,0.3175,0.3175,0.3175,0.3175,0.2566,0.262,0.2643,0.2715,0.2747,0.28,0.2827,0.2863,0.2897,0.2963,0.3005,0.3033,0.3077,0.3132,0.3178,0.319,0.3208,0.321,0.3223,0.3193,0.319,0.3187,0.3176,0.3213,0.3213,0.3251,0.3252,0.3252]}]]